Regional Weather Roundup
Issued by NWS

Home | Current Version | Previous Version | Graphics & Text | Print | Product List | Glossary On
Versions: 1 2 3 4 5 6 7 8 9 10 11 12 13 14 15 16 17 18 19 20 21 22 23 24 25 26 27 28 29 30 31 32 33 34 35 36 37 38 39 40 41 42 43 44 45 46 47 48 49 50
000
ASUS43 KFSD 300210
RWRSD

WEATHER ROUNDUP FOR SOUTH DAKOTA
NATIONAL WEATHER SERVICE SIOUX FALLS SD
900 PM CDT MON SEP 29 2014

NOTE: "FAIR" INDICATES FEW OR NO CLOUDS BELOW 12,000 FEET WITH NO
SIGNIFICANT WEATHER AND/OR OBSTRUCTIONS TO VISIBILITY.


SDZ001>005-009-010-012>017-300300-
NORTHWEST AND NORTH CENTRAL SOUTH DAKOTA

CITY           SKY/WX    TMP DP  RH WIND       PRES   REMARKS
BUFFALO          N/A     52  50  93 SE10      29.84F
FAITH            N/A     54  53  97 E8        29.91F
MOBRIDGE       CLOUDY    57  50  77 E10       29.93F
$$

SDZ012>016-024>037-041>051-057-063-072>074-300300-
SOUTHWEST AND SOUTH CENTRAL SOUTH DAKOTA

CITY           SKY/WX    TMP DP  RH WIND       PRES   REMARKS
RAPID CTY ARPT CLOUDY    51  50  96 W3        29.91F FOG
PIERRE         CLOUDY    63  55  75 E14       29.88F
CUSTER         FOG       50  49  96 E6        29.93S VSB 1/4
ELLSWORTH AFB  FOG       54  54 100 S3        29.90F VSB 1/4
PHILIP         TSTM      57  56  96 E8        29.89S FOG
PINE RIDGE     HVY RAIN  59  58  96 E14       29.85S FOG
WINNER         MOCLDY    66  60  81 E15       29.87F
$$

SDZ004>011-016>023-039-040-300300-
NORTHEAST SOUTH DAKOTA

CITY           SKY/WX    TMP DP  RH WIND       PRES   REMARKS
ABERDEEN       PTCLDY    56  50  80 E10       30.00F
WATERTOWN      PTCLDY    53  48  83 E12       30.02F
SISSETON         N/A     54  48  80 SE15      30.05S
$$

SDZ017-020-022-023-036>040-048>070-300300-
SOUTHEAST SOUTH DAKOTA

CITY           SKY/WX    TMP DP  RH WIND       PRES   REMARKS
SIOUX FALLS    CLEAR     61  55  81 E12       29.99S
HURON          PTCLDY    61  53  75 E12       29.96S
CHAMBERLAIN    PTCLDY    64  58  82 E12G17    29.90S
MITCHELL       CLEAR     63  56  78 E13       29.95S
YANKTON        CLEAR     64  59  82 E14G22    29.94S
$$

ABBREVIATIONS USED IN REMARKS
   TC - TEMPERATURE IN CELSIUS
  WCI - WIND CHILL INDEX
   HX - HEAT INDEX
  VSB - VISIBILITY



USA.gov is the U.S. government's official web portal to all federal, state and local government web resources and services.